Weather in Saskylakh

Russia / Sakha (Yakutia) Republic     71°57′55″N   114°05′35″E
temp.,
°C
wind,
m/s
gust,
m/s
humid.,
%
clouds,
%
prec.,
mm/h
press.,
hPa
HPBL,
m
18 april, sun
sun1800:00−13nnw51095100 0.2 1001299
03:00−13nnw51095100 0.5 1003328
06:00−15nnw5995100 0.3 1006300
09:00−15nw5995100 0.4 1008363
12:00−12nnw6989100 0.1 1010572
15:00−11nw6889100 0.2 1011581
18:00−13wnw6991100 0.1 1013460
21:00−15w5109169 0.1 1015265
19 april, mon
mon1900:00−16w5109394 0.0 1016214
03:00−16wsw499395 0.0 1016187
06:00−16wsw499383 0.0 1017201
09:00−15wsw599166 0.0 1018327
12:00−13w6888100 0.0 1018458
15:00−12w5785100 0.1 1019574
18:00−12w469083 0.0 1020414
21:00−20sw22995 0.0 102110
20 april, tue
tue2000:00−24sw2210024 0.0 10229
03:00−27sw2210033 0.0 10229
06:00−27ssw1110062 0.0 10229
09:00−20sw11975 0.0 102327
12:00−16nw00875 0.0 1022110
15:00−14n118455 0.0 1022173
18:00−16n119269 0.0 102210
21:00−22nw1110087 0.0 10239
21 april, wed
wed2100:00−26w1110091 0.0 10239
03:00−27w1110071 0.0 10239
06:00−27w1110092 0.0 10239
09:00−20wnw1296100 0.0 102362
12:00−16wnw2389100 0.0 1023199
15:00−14wnw3485100 0.0 1023287
18:00−14w2490100 0.0 1023181
21:00−20wsw229879 0.0 10249
22 april, thu
thu2200:00−25sw2210039 0.0 10259
03:00−26ssw2210060 0.0 10259
06:00−26ssw2210034 0.0 102511
09:00−18sw23945 0.0 102560
12:00−14sw35875 0.0 1024202
15:00−12ssw46855 0.0 1023280
18:00−10ssw488899 0.0 1023248
21:00−13ssw4789100 0.0 102385